Temp
13 13 14 14 15 15 15 15 15 15 15 15 15 15 15 15 15 15 14 14 14 14 14 15 15 15 15 15 14 12 14 15 15 15 15 17 17 17 18 17 17 17 15 13 13 13 11
13 14 14 14 15 15 15 15 15 15 15 15 15 15 15 15 15 15 15 14 14 13 13 14 15 15 15 14 12 12 14 15 15 15 15 16 16 16 16 16 16 15 13 12 12 12 11
13 14 14 14 14 14 14 15 15 15 15 15 15 15 15 15 15 15 15 15 14 14 14 15 14 15 14 13 11 12 14 13 13 14 15 14 15 16 16 15 14 14 14 13 11 11 11
13 14 14 14 14 14 14 14 15 15 15 15 15 15 15 15 15 15 15 15 14 14 15 15 15 15 14 12 12 14 14 14 13 13 13 12 13 13 12 12 13 13 14 15 10 10 10
13 13 14 14 14 14 14 14 14 15 14 15 15 15 16 15 15 15 14 15 15 15 15 15 15 16 13 12 11 10 10 10 12 12 11 11 11 10 12 13 14 13 15 12 11 9 9
13 13 13 13 13 14 14 14 14 14 14 15 14 15 15 15 15 15 15 15 15 15 15 15 14 16 13 11 10 9 9 9 12 12 13 11 10 11 11 13 16 9 12 11 10 9 8
13 13 13 13 13 13 13 14 14 14 14 14 14 15 15 15 15 15 15 15 16 15 12 11 11 12 11 9 10 8 6 10 12 12 11 8 10 8 7 8 8 8 8 9 9 7 7
12 12 13 13 13 13 13 13 14 14 14 14 14 15 15 14 15 15 14 12 9 12 11 11 11 10 9 8 10 8 8 10 10 10 9 10 7 6 6 7 7 7 8 8 7 6 6
12 12 12 12 13 13 13 13 13 13 14 14 14 15 15 15 15 14 10 8 9 10 13 11 10 10 8 9 7 7 7 8 8 8 8 8 5 6 6 6 6 7 6 5 5 6 6
11 12 12 12 13 13 13 13 13 13 13 14 14 14 15 15 14 11 9 9 9 10 16 11 10 9 8 8 7 7 6 7 7 7 6 5 6 5 6 5 5 6 5 5 5 5 7
11 12 12 12 12 13 13 13 13 13 13 14 14 13 14 15 13 11 9 9 10 10 17 10 9 8 8 7 6 7 5 8 6 6 7 4 4 5 5 4 4 5 5 4 4 4 4
11 11 12 12 12 12 12 12 13 13 14 14 13 13 14 13 12 9 9 9 10 16 15 9 8 7 8 6 6 6 6 6 6 6 6 5 5 4 4 4 4 5 5 5 5 5 3
11 11 11 12 12 12 12 12 13 13 13 14 13 13 13 12 10 9 9 10 16 17 10 10 8 7 6 5 5 5 4 4 5 6 5 5 4 4 4 5 5 5 5 6 5 4 5
11 11 11 11 12 12 12 12 13 13 13 14 13 12 12 10 9 9 9 15 17 10 9 7 7 6 6 5 4 4 4 4 4 4 4 4 5 3 4 3 2 3 3 3 2 3 3
11 11 11 11 12 12 12 12 13 13 13 14 12 12 11 10 10 9 13 15 12 9 6 7 7 8 7 5 5 4 3 3 3 3 4 4 4 3 3 3 3 3 3 2 1 2 1
11 11 11 11 11 11 12 12 13 13 14 14 12 11 10 10 9 9 14 9 7 5 6 6 9 6 8 5 6 5 4 3 3 2 2 2 2 3 3 3 3 3 2 2 2 0 0
11 11 11 12 11 11 11 12 12 13 13 13 11 13 10 10 10 11 12 7 5 4 5 6 6 6 5 4 4 4 3 2 3 3 3 2 1 3 3 2 1 2 2 2 1 1 0
10 11 11 12 12 12 11 11 12 12 13 13 10 15 10 10 13 7 8 6 5 5 5 5 5 4 4 3 3 3 3 3 2 3 2 2 1 1 2 1 1 1 1 1 -0 0 1
11 10 10 11 12 12 12 12 12 12 12 11 11 10 10 10 14 7 5 4 4 5 4 4 4 4 3 3 3 3 3 3 3 3 2 2 1 1 2 1 -0 0 1 0 0 -1 -1
11 10 10 10 10 11 11 11 12 12 12 11 10 14 10 7 5 8 6 5 4 3 3 3 3 3 3 2 2 2 2 2 2 3 3 2 1 1 1 1 2 0 1 0 -1 -1 -0
11 10 10 10 10 10 10 11 11 12 12 11 7 7 4 9 6 6 6 5 4 4 3 3 3 3 3 2 2 2 2 2 2 2 2 2 1 1 1 1 1 -0 -0 -1 -2 -2 -3
11 11 10 10 10 9 10 10 11 11 11 10 10 8 4 4 4 6 4 5 5 2 3 3 3 2 1 2 2 1 1 1 2 1 1 1 1 0 0 1 0 -1 -1 -2 -2 -1 -2
11 10 9 9 8 9 9 9 10 11 11 7 3 3 8 3 4 6 5 4 4 3 2 3 3 2 1 1 1 1 1 1 1 1 1 0 0 0 -0 0 0 -1 -2 -3 -3 -2 -2
11 10 10 9 8 8 8 9 10 11 11 10 6 5 8 6 5 5 3 3 3 3 2 1 2 2 1 -1 -1 -1 -1 -1 -1 -0 0 0 -1 -1 -1 -0 -1 -3 -3 -3 -3 -3 -2
10 10 9 9 8 8 8 8 9 10 10 10 7 6 7 4 4 3 3 2 2 1 1 1 1 0 -1 0 0 0 -0 -0 -1 -1 -1 -1 -1 -0 -1 -1 0 -4 -3 -4 -5 -4 -5
10 10 9 9 8 8 7 8 8 9 9 9 6 6 4 4 3 3 2 2 2 1 1 0 -1 -2 -0 1 1 0 1 0 -0 -1 -2 -2 -2 -1 -2 -2 -2 -3 -4 -4 -5 -5 -6
10 10 8 7 7 7 6 6 7 8 8 8 4 4 3 0 -1 1 2 2 -0 -0 1 -1 -1 -1 -1 0 1 0 0 -1 -0 -1 -2 -1 -2 -2 -1 -2 -1 -4 -4 -5 -5 -5 -6
10 10 8 6 7 6 5 5 6 7 7 7 2 3 3 -1 -2 -2 -1 -1 -1 0 1 -1 -1 -1 -1 -0 -0 -0 -1 -1 -2 -3 -2 -1 -1 -2 -3 -3 -3 -5 -4 -5 -6 -6 -6
9 9 6 5 6 5 4 4 5 6 6 6 2 1 2 -1 -2 -3 -3 -2 -2 -1 -1 -3 -1 -2 -2 -1 -4 -3 -2 -5 -3 -1 -5 -3 -3 -2 -2 -1 -4 -5 -5 -5 -7 -7 -7
Height
871 869 867 865 862 860 858 855 852 848 845 841 838 835 832 829 826 823 821 819 818 817 817 817 818 818 818 824 836 831 826 824 822 820 819 817 814 815 815 817 819 819 828 835 838 836 841
872 870 868 866 864 862 859 856 852 849 845 841 838 835 832 829 826 823 821 820 820 820 819 821 821 820 821 831 840 832 828 825 824 823 822 820 820 820 820 823 820 828 833 839 840 841 845
874 872 870 867 865 863 860 856 853 849 845 841 838 835 832 829 825 823 822 822 823 823 823 823 822 824 827 843 841 834 830 828 826 825 824 825 823 820 823 825 831 829 831 835 843 844 844
876 874 871 869 867 864 861 857 854 850 846 842 838 835 831 829 826 824 823 823 824 824 823 824 823 824 836 842 840 832 831 831 829 827 828 828 826 829 836 838 834 833 830 824 850 849 847
877 875 873 871 869 866 862 859 855 851 847 843 839 836 832 830 827 826 825 825 825 825 825 825 825 825 841 843 840 840 837 835 833 832 832 831 832 843 839 835 828 835 817 834 838 854 852
878 876 874 872 869 866 863 859 856 852 848 843 840 837 833 831 830 828 826 828 827 826 826 827 830 832 848 853 851 847 841 838 835 833 833 836 843 843 848 836 817 851 837 843 845 851 856
879 878 876 873 869 866 864 861 857 852 848 844 840 837 833 831 829 827 827 828 831 832 838 850 852 852 856 857 854 850 845 841 838 838 839 852 847 861 869 868 866 864 860 855 855 864 864
880 878 876 873 870 867 864 861 857 853 849 845 841 837 833 830 829 826 826 829 834 838 850 855 856 857 858 858 854 856 851 848 852 850 852 851 870 879 878 874 870 868 861 857 860 867 868
881 879 876 873 870 867 864 861 857 853 849 845 842 838 833 830 829 828 828 834 835 837 840 856 859 860 864 863 868 867 863 860 861 861 860 857 883 882 879 877 871 868 869 871 873 866 862
882 880 877 874 871 868 864 860 857 853 850 845 842 839 835 832 833 832 835 837 838 838 832 858 860 866 866 864 870 874 871 869 869 869 872 881 884 880 878 881 883 867 877 876 873 868 849
881 879 877 874 871 868 864 860 857 853 850 846 842 840 837 833 834 836 839 837 838 840 830 864 866 871 872 869 877 874 875 867 870 872 871 889 888 885 880 889 887 880 880 877 872 869 868
881 879 877 874 872 868 864 860 857 853 850 846 842 840 837 836 836 838 838 838 840 832 836 867 872 874 871 877 879 879 876 875 879 876 879 885 890 889 888 887 886 881 873 871 869 865 871
880 878 876 874 871 868 864 860 857 853 849 846 842 840 837 836 838 837 837 840 831 826 867 865 873 876 880 884 886 885 889 886 882 871 877 884 887 890 892 882 882 879 866 853 858 864 848
879 878 876 873 871 868 865 860 857 853 849 845 842 841 839 837 837 837 839 833 829 862 868 879 879 882 881 892 894 894 891 890 897 893 890 886 874 891 890 891 892 886 884 880 885 867 864
878 876 875 874 870 867 864 861 856 852 848 844 842 841 840 838 835 836 835 833 851 870 882 879 877 871 881 888 891 892 899 901 904 901 891 888 888 896 895 893 891 886 887 895 896 883 885
875 874 873 872 870 868 864 861 856 851 846 842 841 840 840 837 836 836 832 860 877 883 883 881 866 884 872 889 885 889 895 906 905 905 904 904 897 897 894 894 893 890 895 890 885 894 885
871 871 870 868 868 867 865 861 856 851 846 841 839 839 842 837 837 837 846 871 883 889 888 882 881 883 890 891 896 896 902 906 906 905 903 904 906 894 894 897 897 892 892 894 897 891 886
871 869 868 865 863 863 863 861 857 852 847 842 840 837 841 838 841 864 868 879 885 887 889 888 889 891 891 897 894 897 900 904 909 908 906 906 906 901 896 903 905 901 897 899 898 889 884
868 868 867 865 862 859 857 857 856 853 849 846 846 845 842 838 838 868 884 886 889 888 891 888 891 892 896 896 897 901 904 907 908 907 906 907 907 899 889 904 907 902 898 899 899 902 895
861 863 864 865 862 860 856 854 854 851 850 849 850 840 847 853 870 865 876 882 888 893 894 892 894 895 897 899 902 901 903 904 907 906 907 906 906 906 900 899 895 898 894 898 903 897 886
856 857 859 860 861 860 856 852 851 850 849 849 856 865 869 859 870 875 875 881 885 890 894 894 895 895 897 900 902 903 904 904 905 906 906 905 904 904 901 896 898 899 897 899 902 900 903
850 851 854 856 856 857 855 852 850 849 848 848 851 858 873 876 878 872 881 882 882 893 892 892 892 897 900 900 899 902 903 904 899 905 905 909 901 904 897 891 896 897 897 903 901 897 896
845 845 847 850 851 852 852 850 849 848 847 848 855 858 855 879 877 869 873 880 882 889 896 893 894 897 899 899 901 902 902 904 904 905 904 905 903 902 895 894 891 894 898 905 905 901 899
839 840 841 843 846 847 848 848 846 846 846 845 848 852 854 866 870 869 878 881 885 889 892 897 897 897 902 903 906 906 905 905 907 906 907 904 908 907 897 894 892 906 908 908 906 902 897
832 834 835 837 841 843 845 844 844 844 843 844 845 849 853 867 871 880 881 885 890 892 894 895 899 903 905 904 901 900 899 901 903 904 907 907 908 900 903 898 887 912 908 911 912 899 907
826 828 830 831 835 838 841 842 842 843 843 843 845 846 851 860 874 875 883 887 887 890 895 897 902 903 905 901 898 897 886 889 895 903 909 910 909 904 910 908 895 899 911 914 916 899 907
821 822 824 826 830 832 836 837 842 843 842 845 847 848 851 868 880 878 878 883 890 893 891 897 900 901 904 900 896 895 891 898 892 894 901 902 904 901 895 899 890 908 912 915 907 903 909
815 815 818 821 824 827 832 832 838 841 841 844 848 848 851 870 881 880 882 885 889 890 889 898 899 901 902 900 896 899 898 901 902 904 901 898 896 895 906 908 902 910 909 909 911 910 909
810 809 811 815 818 821 825 828 834 839 839 842 847 850 852 862 881 883 883 885 886 888 893 900 897 901 899 900 910 910 903 917 908 889 913 905 903 896 901 889 906 909 910 910 913 911 907
Wind_Speed
13 14 15 16 17 18 19 20 21 21 22 22 20 19 20 16 15 16 13 6 5 5 7 9 12 9 4 9 8 22 11 12 10 10 11 3 6 1 3 3 2 2 7 10 8 8 15
12 13 15 16 17 18 19 20 21 22 23 22 20 19 20 15 18 15 11 10 13 16 12 10 9 9 5 9 14 19 9 11 12 9 11 10 5 3 5 3 2 6 10 7 8 9 10
11 13 14 15 17 18 19 20 21 22 22 22 19 20 19 13 16 10 10 10 10 9 8 7 15 19 27 10 15 17 11 14 10 6 6 10 3 2 1 4 5 6 4 4 12 9 5
12 13 14 16 17 18 19 21 22 22 23 22 19 20 18 13 14 8 9 9 8 6 6 7 10 9 6 5 15 24 17 10 15 11 8 9 13 9 5 6 1 1 3 5 6 11 4
12 13 15 16 17 18 20 21 22 22 23 22 18 20 17 12 11 10 12 10 11 12 11 5 5 5 5 6 21 22 17 11 7 8 17 12 9 6 6 3 3 3 4 4 1 5 7
11 12 13 15 16 18 20 22 23 22 23 22 18 20 17 9 11 22 20 22 20 5 5 6 10 5 7 7 15 19 16 16 7 4 3 9 6 5 11 7 3 4 5 4 8 6 10
11 13 13 14 16 17 20 22 23 23 23 22 18 19 16 7 12 6 11 4 2 6 25 11 7 6 4 9 8 28 20 9 8 8 6 8 10 10 9 8 3 4 7 10 7 4 9
10 11 12 14 16 18 21 22 22 22 22 22 17 19 16 6 9 9 5 5 3 9 12 12 13 9 10 4 5 27 23 8 13 11 0 6 9 6 5 7 2 4 7 6 7 3 8
10 11 12 14 16 18 21 22 22 22 22 22 15 18 16 4 5 13 13 7 11 7 5 6 7 6 6 8 8 15 15 3 9 14 16 11 5 3 0 8 8 3 4 6 9 12 12
11 11 12 14 16 18 21 22 22 22 22 21 12 17 16 4 2 4 5 4 4 1 3 7 7 7 10 2 5 16 12 4 5 5 6 8 5 4 4 6 8 8 2 12 11 8 5
11 12 13 14 15 18 21 22 22 22 23 23 14 13 15 11 3 4 2 3 4 2 2 4 4 3 11 7 5 15 10 8 8 10 3 3 6 9 6 7 6 5 16 14 13 10 6
11 11 13 15 16 18 21 21 21 22 23 23 14 10 14 4 9 4 2 5 2 2 1 2 3 6 3 8 4 8 8 8 2 5 11 6 3 4 6 7 3 12 10 5 3 3 5
12 12 13 14 16 18 20 21 21 22 22 22 11 6 17 8 2 3 5 2 2 1 1 2 3 4 4 7 5 8 10 13 6 4 7 2 5 3 7 6 1 13 11 3 3 3 3
12 12 12 13 15 19 21 21 21 22 21 19 7 2 13 13 5 2 2 3 1 2 1 1 2 1 4 8 5 8 3 5 10 6 3 5 2 6 7 6 5 5 6 3 5 5 10
11 12 13 14 15 17 20 20 21 22 22 18 6 2 5 16 5 2 3 3 2 1 1 4 1 1 2 3 4 3 6 2 4 7 5 5 1 1 3 1 6 4 4 2 4 6 6
9 11 12 13 15 18 20 21 21 22 22 16 3 1 5 12 5 1 3 4 2 1 1 1 2 3 3 5 3 5 2 1 1 1 3 2 5 0 3 2 4 4 2 2 1 5 10
9 9 10 10 13 17 20 22 22 22 22 13 1 1 9 8 5 5 3 4 3 3 1 3 2 2 3 2 3 2 2 2 1 2 1 1 1 2 3 2 4 0 1 1 3 4 6
13 10 9 9 9 12 17 21 22 23 22 10 2 2 11 5 3 3 3 3 3 3 2 2 3 3 1 1 1 0 1 2 0 2 2 1 2 4 4 3 1 1 3 3 3 4 8
16 14 13 11 9 10 12 15 18 21 19 8 2 2 8 4 2 3 3 4 3 2 1 2 3 1 1 2 1 1 1 2 1 1 2 2 1 5 3 4 3 4 3 5 6 6 12
18 16 14 13 11 10 10 12 14 15 14 6 1 2 4 6 3 5 4 3 3 2 2 3 3 2 2 2 1 2 3 3 1 1 3 3 2 6 6 9 10 13 11 8 7 7 11
21 18 16 13 12 12 10 11 11 12 10 2 4 2 1 3 4 6 2 4 4 3 1 1 3 1 3 3 2 3 3 2 4 1 1 2 5 5 10 14 12 10 10 6 10 11 8
22 21 19 16 13 11 9 9 8 9 7 4 2 3 2 3 2 4 1 3 6 3 3 2 3 5 4 3 3 3 4 4 3 3 1 1 5 3 12 9 5 12 8 7 9 11 11
24 24 22 17 14 11 9 7 7 7 3 4 4 3 2 2 3 3 3 5 5 8 2 2 5 4 4 4 3 2 3 1 2 2 2 2 3 4 5 4 11 7 4 5 6 9 12
26 25 25 20 17 12 10 6 4 5 3 4 6 5 2 3 3 2 6 3 9 3 4 4 4 2 2 3 3 2 2 3 5 6 4 3 2 2 6 8 4 4 3 3 9 13 11
28 28 27 23 18 13 9 5 3 2 4 6 9 4 3 3 4 5 9 6 7 4 3 4 2 2 1 2 2 2 3 3 2 2 4 5 2 3 4 5 10 2 3 2 5 17 2
28 30 31 26 18 13 10 4 3 2 5 8 10 9 5 6 5 5 5 5 4 3 3 3 2 0 2 2 2 3 3 1 3 4 3 3 0 4 1 4 4 4 4 4 4 6 4
25 31 32 28 19 15 13 8 6 7 5 3 7 10 7 4 1 2 3 4 4 2 3 2 2 2 1 3 3 3 2 0 2 3 4 3 3 6 6 5 5 4 3 0 5 4 10
28 32 34 27 22 18 16 15 8 9 11 4 8 8 5 4 3 2 2 4 3 2 3 4 3 2 2 4 2 2 3 1 2 0 2 3 3 3 2 4 4 2 2 4 4 8 13
30 36 33 29 24 23 22 19 14 12 10 9 7 15 17 11 4 12 14 9 4 3 4 2 1 2 2 2 1 2 2 2 1 2 1 3 2 0 4 2 2 1 5 5 4 11 11
Wind_Direction
42 39 35 33 32 30 28 25 23 20 16 15 15 14 11 14 8 0 2 39 53 59 89 108 120 134 66 63 14 331 359 23 32 38 37 47 61 93 120 98 99 135 121 63 75 84 73
39 36 33 32 31 29 27 24 21 19 16 13 14 14 13 17 7 12 34 75 89 81 82 87 100 87 68 76 342 357 36 44 40 33 42 43 47 41 89 75 38 83 94 92 59 69 74
35 33 31 30 29 26 25 22 19 16 13 11 13 13 12 19 13 37 64 92 119 76 76 75 104 89 65 64 8 21 51 37 23 23 58 25 24 70 352 123 0 145 164 138 27 1 52
30 28 27 27 25 24 22 18 16 13 11 10 11 11 12 27 19 51 77 90 95 81 91 82 88 79 80 48 7 30 31 41 45 65 77 52 64 77 28 319 57 320 241 251 46 7 29
27 25 25 23 22 20 18 15 13 11 10 9 11 10 13 33 32 77 86 93 98 79 65 86 45 91 78 355 11 4 15 358 341 53 51 53 58 50 20 343 199 46 277 280 253 37 341
24 24 24 22 20 18 15 12 11 11 9 8 10 10 15 37 79 114 95 81 78 97 38 50 47 74 32 4 1 359 8 14 20 352 45 33 50 67 30 4 309 323 301 280 290 12 338
19 20 18 18 18 15 13 12 10 9 8 6 8 7 13 25 24 215 246 296 213 38 45 72 49 80 19 340 22 8 353 344 16 51 33 32 59 55 35 19 6 302 286 286 289 324 324
18 18 14 13 14 14 11 10 9 8 6 4 6 4 6 13 27 29 109 76 91 135 95 65 75 77 48 355 19 6 7 51 38 41 115 81 68 32 32 24 358 311 295 302 287 185 313
7 10 9 11 11 12 10 7 7 6 5 3 5 8 3 23 49 47 76 94 120 125 87 53 56 37 9 30 46 356 9 50 48 50 54 77 46 26 56 26 354 302 288 319 295 309 270
0 4 5 7 9 8 7 5 4 4 1 2 1 10 9 20 69 55 57 114 139 133 129 11 9 26 359 59 64 20 10 11 61 66 68 65 42 34 40 29 351 311 297 311 295 300 289
354 357 359 3 5 5 4 3 2 2 -0 360 358 1 5 40 66 48 344 160 174 267 249 32 38 18 36 64 310 11 10 57 73 52 255 87 49 22 29 2 341 321 312 297 291 266 275
352 353 354 358 1 1 2 2 2 1 359 358 357 8 6 15 50 33 96 140 157 216 266 49 36 9 25 34 39 344 16 46 63 66 67 87 93 37 353 331 346 320 302 267 218 236 249
348 347 350 354 356 357 359 1 1 1 358 357 358 10 20 38 28 20 137 185 253 357 124 31 357 13 72 24 38 21 48 45 34 350 27 102 73 115 5 337 182 360 349 298 243 224 316
345 343 343 349 352 355 357 359 360 356 354 354 354 358 21 23 11 102 162 221 281 46 24 38 349 42 55 5 43 24 50 59 46 16 18 3 171 21 13 43 321 6 15 11 299 306 305
341 340 339 342 347 353 354 356 357 355 351 352 341 307 11 355 9 133 228 49 49 43 5 332 183 41 76 55 12 38 49 60 35 16 16 335 210 334 16 5 339 22 27 3 279 231 271
329 337 333 337 341 347 351 353 356 354 350 349 330 149 13 355 8 61 74 113 148 71 343 206 10 0 352 8 358 18 40 59 105 39 296 111 285 42 18 204 88 27 14 241 176 295 310
301 323 324 329 336 342 347 348 351 354 349 346 40 278 357 357 36 48 74 91 114 54 278 16 115 114 85 28 6 23 25 145 309 55 78 150 315 127 266 16 331 213 66 332 279 257 293
285 295 308 312 325 337 345 345 347 350 353 350 39 308 353 28 39 42 71 83 102 125 64 98 85 88 105 135 140 214 304 17 143 325 349 41 308 292 310 337 297 273 289 275 294 284 276
275 283 294 301 310 326 342 345 346 350 356 340 27 329 357 38 72 93 113 88 61 154 56 139 122 54 133 133 286 167 210 126 154 216 344 153 204 302 177 169 202 265 259 238 276 275 273
261 268 279 293 297 307 332 343 345 350 351 354 331 330 34 51 36 110 140 137 134 46 104 90 114 127 135 146 128 182 213 190 225 251 58 220 232 262 282 294 300 294 282 254 245 273 304
258 258 264 275 282 302 319 336 341 346 349 16 14 68 39 44 54 97 102 147 152 190 108 151 115 167 154 180 197 214 215 224 204 265 146 253 272 246 264 280 294 273 290 266 245 265 276
257 258 255 258 263 284 302 324 335 340 341 84 149 153 90 93 135 126 31 167 175 157 180 170 197 157 168 211 229 198 191 213 226 172 212 194 275 283 292 297 248 281 274 272 265 273 273
259 255 250 248 252 269 280 300 327 330 320 110 122 118 138 149 155 173 155 159 178 144 88 84 146 154 194 213 200 210 228 247 250 224 206 244 270 300 286 310 307 267 220 239 279 276 293
257 257 251 243 247 256 262 271 306 312 273 180 160 139 152 156 191 176 150 120 149 157 148 136 142 181 137 116 124 137 176 234 225 230 237 240 242 249 291 309 268 97 128 293 288 286 298
251 255 250 253 244 247 247 240 270 276 229 217 158 145 133 121 122 114 130 121 118 97 107 155 148 61 177 192 226 228 182 187 130 153 193 222 236 275 280 296 294 192 215 316 318 305 148
251 248 246 251 231 236 212 200 206 149 137 151 126 113 104 126 188 118 131 162 152 147 144 128 95 116 236 241 232 249 241 155 178 158 142 128 211 244 236 283 286 83 138 335 286 269 157
247 244 239 236 217 217 194 165 221 200 180 157 112 118 96 104 105 134 142 168 131 120 131 135 155 151 342 206 227 235 236 198 222 205 182 202 206 242 253 264 274 127 333 88 271 12 318
251 242 229 211 212 198 176 160 154 153 146 154 108 119 102 93 67 54 82 137 128 175 166 128 150 161 142 205 228 208 237 172 241 107 211 224 213 196 170 248 271 128 261 266 351 320 323
254 234 204 198 204 192 175 170 179 197 162 153 105 112 108 81 95 100 82 73 70 96 128 148 34 142 151 126 204 160 199 198 272 248 166 232 271 349 232 305 87 285 289 299 321 317 318